DN9EM-2 Weather Reports


Display with metric or nautical units.
time (UTC)temp
F
wind
direction
speed
MPH
gust
MPH
rain 1hr
in
rain 24hr
in
rain mn
in
humidity
%
barometer
mb
20260505124054 59 293 0.0 2.0 0.00 0.00 0.00 66 1012.7
20260505122049 59 0.0 2.0 0.00 0.00 0.00 65 1012.7
20260505121046 59 338 0.0 2.0 0.00 0.00 0.00 66 1012.8
20260505120043 58 346 1.0 2.0 0.00 0.00 0.00 65 1012.9
20260505115041 58 293 0.0 4.0 0.00 0.00 0.00 66 1012.8
20260505114038 59 0.0 2.0 0.00 0.00 0.00 65 1012.8
20260505113035 58 33 1.0 4.0 0.00 0.00 0.00 66 1012.8
20260505112033 57 315 0.0 2.0 0.00 0.00 0.00 66 1012.8
20260505111030 57 323 0.0 4.0 0.00 0.00 0.00 67 1012.9
20260505102037 57 186 0.0 4.0 0.00 0.00 0.00 66 1013.3
20260505101114 56 338 0.0 2.0 0.00 0.00 0.00 68 1013.3
20260505100112 57 212 1.0 2.0 0.00 0.00 0.00 68 1013.4
20260505095109 55 183 1.0 7.0 0.00 0.00 0.00 70 1013.4
20260505094106 56 180 0.0 4.0 0.00 0.00 0.00 70 1013.5
20260505093104 55 340 0.0 4.0 0.00 0.00 0.00 70 1013.5
20260505092101 55 210 1.0 4.0 0.00 0.00 0.00 70 1013.5
20260505091058 55 347 1.0 4.0 0.00 0.00 0.00 70 1013.6
20260505090055 54 316 0.0 4.0 0.00 0.00 0.00 73 1013.6
20260505085053 54 229 1.0 2.0 0.00 0.00 0.00 74 1013.6
20260505084050 53 330 0.0 2.0 0.00 0.00 0.00 74 1013.5
20260505083048 52 192 1.0 2.0 0.00 0.00 0.00 76 1013.5
20260505082045 52 189 1.0 2.0 0.00 0.00 0.00 77 1013.4
20260505081042 51 336 1.0 4.0 0.00 0.00 0.00 78 1013.3
20260505080040 51 190 1.0 4.0 0.00 0.00 0.00 79 1013.3
20260505075037 50 158 0.0 2.0 0.00 0.00 0.00 79 1013.3
20260505074035 50 309 1.0 2.0 0.00 0.00 0.00 80 1013.3
20260505073032 50 209 0.0 2.0 0.00 0.00 0.00 80 1013.3
20260505072029 49 210 0.0 4.0 0.00 0.00 0.00 81 1013.2
20260505071026 49 32 1.0 4.0 0.00 0.00 0.00 81 1013.2
20260505070024 49 120 0.0 2.0 0.00 0.00 0.00 81 1013.2
20260505065021 49 252 1.0 4.0 0.00 0.00 0.00 81 1013.1
20260505064019 49 190 0.0 4.0 0.00 0.00 0.00 81 1013.0
20260505063016 48 338 0.0 4.0 0.00 0.00 0.00 83 1013.1
20260505062113 47 265 1.0 4.0 0.00 0.00 0.00 84 1013.1
20260505061111 47 225 1.0 4.0 0.00 0.00 0.00 84 1013.1
20260505060108 46 180 0.0 2.0 0.00 0.00 0.00 84 1013.0
20260505055106 46 135 1.0 2.0 0.00 0.00 0.00 84 1013.0
20260505054103 46 0.0 2.0 0.00 0.00 0.00 84 1012.9
20260505053100 46 203 0.0 4.0 0.00 0.00 0.00 85 1012.8
20260505052058 45 254 0.0 2.0 0.00 0.00 0.00 85 1012.8
20260505051055 45 286 1.0 4.0 0.00 0.00 0.00 85 1012.9
20260505041039 45 180 0.0 2.0 0.00 0.00 0.00 86 1012.8
20260505040036 45 202 1.0 4.0 0.00 0.00 0.00 85 1012.8
20260505035033 45 187 1.0 4.0 0.00 0.00 0.00 85 1012.7
20260505034030 45 197 1.0 2.0 0.00 0.00 0.00 85 1012.7
20260505033028 45 195 0.0 2.0 0.00 0.00 0.00 84 1012.9
20260505032025 45 198 1.0 4.0 0.00 0.00 0.00 84 1012.8
20260505031023 45 197 1.0 4.0 0.00 0.00 0.00 83 1013.0
20260505030020 46 183 1.0 2.0 0.00 0.00 0.00 84 1012.9
20260505025017 46 220 1.0 4.0 0.00 0.00 0.00 83 1013.0
20260505024015 46 171 1.0 6.0 0.00 0.00 0.00 83 1013.0
20260505023112 46 181 2.0 4.0 0.00 0.00 0.00 84 1013.2
20260505022110 46 187 1.0 4.0 0.00 0.00 0.00 84 1013.2
20260505021107 46 165 0.0 2.0 0.00 0.00 0.00 84 1013.1
20260505020105 46 203 0.0 2.0 0.00 0.00 0.00 83 1013.2
20260505015102 47 180 0.0 2.0 0.00 0.00 0.00 83 1013.4
20260505014059 47 0.0 2.0 0.00 0.00 0.00 83 1013.3
20260505013057 47 0.0 2.0 0.00 0.00 0.00 82 1013.4
20260505012054 47 135 0.0 2.0 0.00 0.00 0.00 82 1013.3
20260505011052 47 0.0 0.0 0.00 0.00 0.00 83 1013.4
20260505010049 47 0.0 0.0 0.00 0.00 0.00 83 1013.5
20260505005046 47 0.0 2.0 0.00 0.00 0.00 82 1013.6
20260505004043 47 0.0 0.0 0.00 0.00 0.00 82 1013.8
20260505003041 47 0.0 0.0 0.00 0.00 0.00 83 1013.8
20260505002038 47 0.0 0.0 0.00 0.00 0.00 83 1013.7
20260505001036 47 0.0 0.0 0.00 0.00 0.00 85 1013.8
20260505000033 47 0.0 0.0 0.00 0.00 0.00 85 1013.7
20260504235031 46 171 1.0 2.0 0.00 0.00 0.00 86 1013.6
20260504234028 46 0.0 0.0 0.00 0.00 0.00 87 1013.8
20260504233025 46 0.0 0.0 0.00 0.00 0.00 86 1013.8
20260504232023 46 0.0 0.0 0.00 0.00 0.00 86 1013.9
20260504231020 46 0.0 2.0 0.00 0.00 0.00 87 1014.0
20260504230017 46 195 0.0 2.0 0.00 0.00 0.00 87 1014.0
20260504225015 46 180 0.0 2.0 0.00 0.00 0.00 87 1013.8
20260504224112 46 188 1.0 2.0 0.00 0.00 0.00 86 1014.1
20260504223110 47 0.0 2.0 0.00 0.00 0.00 86 1014.1
20260504222107 47 182 1.0 2.0 0.00 0.00 0.00 85 1014.2
20260504221104 47 183 1.0 4.0 0.00 0.00 0.00 86 1014.1
20260504215059 48 187 2.0 4.0 0.00 0.00 0.00 84 1014.3
20260504214056 48 186 2.0 4.0 0.00 0.00 0.00 85 1014.3
20260504213054 48 187 1.0 2.0 0.00 0.00 0.00 86 1014.4
20260504212051 49 180 1.0 4.0 0.00 0.00 0.00 86 1014.4
20260504211048 49 199 1.0 2.0 0.00 0.00 0.00 86 1014.4
20260504210046 50 0.0 2.0 0.00 0.00 0.00 86 1014.4
20260504205043 50 0.0 2.0 0.00 0.00 0.00 86 1014.4
20260504204041 51 0.0 0.0 0.00 0.00 0.00 85 1014.5
20260504203038 51 0.0 0.0 0.00 0.00 0.00 85 1014.5
20260504202035 51 0.0 0.0 0.00 0.00 0.00 85 1014.4
20260504201033 52 0.0 0.0 0.00 0.00 0.00 84 1014.3
20260504200030 52 0.0 0.0 0.00 0.00 0.00 84 1014.2
20260504195028 52 0.0 0.0 0.00 0.00 0.00 83 1014.4
20260504194025 52 0.0 0.0 0.00 0.00 0.00 83 1014.3
20260504193022 52 0.0 0.0 0.00 0.00 0.00 83 1014.4
20260504192020 52 0.0 0.0 0.00 0.00 0.00 83 1014.3
20260504191017 53 0.0 0.0 0.00 0.00 0.00 82 1014.4
20260504190014 53 203 0.0 2.0 0.00 0.00 0.00 81 1014.3
20260504185112 54 158 0.0 2.0 0.00 0.00 0.00 81 1014.4
20260504184109 54 197 0.0 2.0 0.00 0.00 0.00 80 1014.3
20260504183107 55 203 0.0 2.0 0.00 0.00 0.00 80 1014.4
20260504182104 55 179 1.0 2.0 0.00 0.00 0.00 79 1014.4
20260504181101 55 180 0.0 2.0 0.00 0.00 0.00 78 1014.4
20260504180059 56 203 0.0 2.0 0.00 0.00 0.00 78 1014.4
20260504175056 56 180 0.0 2.0 0.00 0.00 0.00 78 1014.5
20260504174054 56 183 1.0 2.0 0.00 0.00 0.00 78 1014.3
20260504173051 56 188 2.0 4.0 0.00 0.00 0.00 78 1014.4
20260504172048 57 188 1.0 4.0 0.00 0.00 0.00 78 1014.5
20260504171046 57 196 1.0 4.0 0.00 0.00 0.00 77 1014.3
20260504151015 61 186 1.0 4.0 0.00 0.00 0.00 70 1015.2
20260504150112 60 182 2.0 6.0 0.00 0.00 0.00 71 1015.3
20260504141059 60 186 3.0 4.0 0.00 0.00 0.00 73 1015.6